Location: Dunedin
(45.8900°S, 170.5000°E)
Time: 16:35:25
(UTC+13:00)

ISS - Visible Passes

Search period start: 16 December 2017 00:00
Search period end: 26 December 2017 00:00
Orbit: 402 x 406 km, 51.6° (Epoch: 16 December)

Date Brightness Start Highest point End Pass type
(mag) Time Alt. Az. Time Alt. Az. Time Alt. Az.
16 Dec -3.6 01:54:17 64° ESE 01:54:17 64° ESE 01:57:11 10° ESE visible
16 Dec -2.0 03:27:33 10° WSW 03:30:36 32° S 03:33:40 10° ESE visible
17 Dec -2.1 01:03:21 24° ESE 01:03:21 24° ESE 01:04:54 10° ESE visible
17 Dec -2.4 02:35:57 16° W 02:38:13 39° SSW 02:41:24 10° SE visible
17 Dec -1.7 04:12:14 10° WSW 04:15:15 30° S 04:18:15 10° ESE visible
18 Dec -1.2 00:12:12 12° E 00:12:12 12° E 00:12:29 10° ESE visible
18 Dec -3.0 01:44:47 34° WSW 01:45:52 52° SSW 01:49:09 10° ESE visible
18 Dec -1.7 03:19:50 10° WSW 03:22:49 29° S 03:25:49 10° ESE visible
18 Dec -2.5 04:56:33 10° WSW 04:59:49 46° SSE 05:03:03 10° E visible
19 Dec -3.8 00:53:10 65° W 00:53:33 78° SSW 00:56:55 10° ESE visible
19 Dec -1.8 02:27:21 10° WSW 02:30:23 31° S 02:33:25 10° ESE visible
19 Dec -2.0 04:04:18 10° SW 04:07:26 36° SSE 04:10:33 10° E visible
20 Dec -3.9 00:00:00 33° NW 00:01:18 65° NNE 00:04:37 10° ESE visible
20 Dec -2.2 01:34:50 10° W 01:37:57 36° SSW 01:41:06 10° SE visible
20 Dec -1.8 03:11:58 10° WSW 03:15:00 31° S 03:18:01 10° ESE visible
20 Dec -3.6 04:48:28 10° WSW 04:51:49 78° SSE 04:55:09 10° ENE visible
20 Dec -3.3 23:06:00 10° NNW 23:09:05 37° NE 23:12:13 10° ESE visible
21 Dec -2.7 00:42:19 10° W 00:45:33 46° SSW 00:48:48 10° ESE visible
21 Dec -1.7 02:19:32 10° WSW 02:22:32 29° S 02:25:31 10° ESE visible
21 Dec -2.9 03:56:12 10° WSW 03:59:29 52° SSE 04:02:45 10° E visible
21 Dec -2.5 22:14:20 10° N 22:16:57 22° NE 22:19:36 10° E visible
21 Dec -3.4 23:49:52 10° WNW 23:53:11 67° SSW 23:56:32 10° ESE visible
22 Dec -1.7 01:27:03 10° WSW 01:30:03 30° S 01:33:04 10° ESE visible
22 Dec -2.2 03:03:54 10° SW 03:07:05 38° SSE 03:10:14 10° E visible
22 Dec -3.7 04:40:24 10° WSW 04:43:40 54° NW 04:46:56 10° NE visible
22 Dec -3.9 22:57:32 10° NW 23:00:52 78° NNE 23:04:12 10° ESE visible
23 Dec -2.0 00:34:30 10° WSW 00:37:35 33° S 00:40:40 10° SE visible
23 Dec -1.9 02:11:33 10° WSW 02:14:37 32° S 02:17:41 10° ESE visible
23 Dec -3.9 03:48:03 10° WSW 03:51:24 90° N 03:54:44 10° ENE visible
23 Dec -3.5 22:05:24 10° NW 22:08:36 45° NE 22:11:49 10° ESE visible
23 Dec -2.4 23:41:55 10° W 23:45:07 42° SSW 23:48:20 10° SE visible
24 Dec -1.7 01:19:08 10° WSW 01:22:08 29° S 01:25:07 10° ESE visible
24 Dec -3.2 02:55:43 10° WSW 02:59:02 59° SSE 03:02:20 10° ENE visible
24 Dec -2.8 04:32:30 10° W 04:35:20 26° NW 04:38:09 10° NNE visible
24 Dec -3.1 22:49:24 10° WNW 22:52:41 58° SSW 22:56:01 10° ESE visible
25 Dec -1.7 00:26:37 10° WSW 00:29:36 29° S 00:32:36 10° ESE visible
25 Dec -2.5 02:03:23 10° SW 02:06:36 42° SSE 02:09:48 10° E visible
25 Dec -3.5 03:39:55 10° WSW 03:43:08 44° NW 03:46:19 10° NE visible
25 Dec -1.8 23:34:02 10° WSW 23:37:05 32° S 23:40:09 10° ESE visible
